Location: Le Pouzin
(44.7532°N, 4.7474°E)
Time: 01:34:34
(UTC+00:00)

Daily predictions for brighter satellites

Satellite Brightness Start Highest point End
(mag) Time Altitude Azimuth Time Altitude Azimuth Time Altitude Azimuth
Cosmos 1464 Rocket 3.9 00:08:47 75° SE 00:09:05 77° E 00:15:19 10° N
Cosmos 2333 4.3 00:04:57 10° NNW 00:10:14 68° WNW 00:10:14 68° WNW
Cosmos 2219 Rocket 2.2 00:05:35 10° NNW 00:11:13 80° NE 00:11:13 80° NE
Lacrosse 4 Rocket 2.6 00:13:01 41° N 00:13:01 41° N 00:15:54 10° NNE
Cosmos 1354 Rocket 4.2 00:16:37 66° ENE 00:16:37 66° ENE 00:21:24 10° NNE
Cosmos 968 Rocket 3.8 00:19:13 60° NW 00:19:13 60° NW 00:23:52 10° NNE
Cosmos 2322 Rocket 4.1 00:15:12 10° WNW 00:17:43 17° W 00:17:43 17° W
SL-4 R/B 4.5 00:22:18 14° NE 00:22:18 14° NE 00:22:56 10° ENE
COSMOS 2428 2.6 00:23:40 10° NNW 00:29:12 80° WNW 00:29:12 80° WNW
SL-16 R/B 3.6 00:28:37 26° ESE 00:31:24 40° ENE 00:37:11 10° N
CENTAUR R/B 4.4 00:28:03 10° W 00:33:27 27° NNW 00:39:38 10° NNE
Nadezhda 4 Rocket 3.9 00:28:18 10° N 00:34:39 84° E 00:35:18 73° SSE
Cosmos 2360 Rocket 3.8 00:30:17 10° NW 00:33:24 23° W 00:33:24 23° W
Cosmos 2034 Rocket 3.8 00:35:41 76° S 00:36:12 87° E 00:42:33 10° N
CZ-2D R/B 3.3 00:32:41 10° NNE 00:37:33 31° E 00:38:05 31° ESE
Okean 2 Rocket 3.7 00:41:46 55° NE 00:41:46 55° NE 00:45:23 10° NNE
Meteor 2-9 Rocket 4.4 00:41:29 60° WNW 00:41:29 60° WNW 00:47:06 10° N
GEOS 3 Rocket 3.6 00:37:24 10° NE 00:42:46 80° ESE 00:42:46 80° ESE
Cosmos 2297 Rocket 3.0 00:45:36 39° ESE 00:45:44 39° ESE 00:50:57 10° NE
ADEOS II 4.3 00:42:51 10° NE 00:45:46 15° E 00:47:27 13° ESE
Cosmos 2219 3.7 00:45:50 45° ESE 00:45:53 45° ESE 00:51:13 10° NE
Cosmos 1092 Rocket 4.2 00:40:31 10° N 00:46:45 66° E 00:48:01 53° SE
Cosmos 1975 Rocket 4.3 00:42:39 10° NNW 00:45:36 34° NW 00:45:36 34° NW
Sich 1 Rocket 4.3 00:48:43 48° NNW 00:48:43 48° NNW 00:52:08 10° N
Cosmos 1980 4.0 00:42:49 10° NNW 00:48:28 61° ENE 00:49:51 47° ESE
Cosmos 1777 Rocket 4.4 00:49:00 54° E 00:49:00 54° E 00:54:03 10° NNE
Cosmos 2333 Rocket 2.8 00:43:34 10° NW 00:48:12 44° W 00:48:12 44° W
Helios 1B rocket 3.5 00:45:53 10° N 00:48:49 41° NNW 00:48:49 41° NNW
Cosmos 44 Rocket 3.5 00:50:50 10° NW 00:55:08 66° NW 00:55:08 66° NW
Cosmos 1300 Rocket 4.0 00:57:53 56° N 00:57:53 56° N 01:01:21 10° N
Cosmos 2237 Rocket 2.4 00:52:52 10° NNW 00:58:32 68° ENE 00:59:51 51° ESE
DELTA 2 DEB (DPAF) 4.4 01:00:27 64° NE 01:00:27 64° NE 01:04:37 10° N
Okean 1 Rocket 4.2 01:01:02 36° E 01:01:02 36° E 01:04:51 10° NNE
Spot 1 4.5 01:06:48 58° N 01:06:48 58° N 01:10:07 10° NNW
ATLAS 3B CENTAUR R/B 4.5 01:13:44 29° SSE 01:13:44 29° SSE 01:19:00 10° SE
Cosmos 2151 Rocket 3.8 01:12:29 64° NNW 01:12:29 64° NNW 01:16:20 10° N
Meteor 1-12 Rocket 4.3 01:11:28 64° WSW 01:12:10 70° WNW 01:18:11 10° N
Timation 2 Rocket 3.9 01:14:34 60° WSW 01:15:39 75° WNW 01:21:45 10° NNE
Cosmos 1707 4.4 01:15:00 10° NNW 01:17:06 27° NW 01:17:06 27° NW
In-Cosmos 22 4.0 01:13:16 10° NNW 01:18:53 73° W 01:19:14 70° SW
Meteor 1-15 Rocket 4.2 01:22:53 60° SSE 01:23:54 77° E 01:29:31 10° NNE
Cosmos 1805 4.0 01:24:26 49° ENE 01:24:26 49° ENE 01:27:48 10° NNE
SJ 16-02 2.6 01:25:10 31° ESE 01:25:32 31° E 01:29:27 10° NE
ERBS 4.1 01:24:30 10° NNW 01:27:29 30° NNE 01:30:27 10° E
DNEPR-1 R/B 4.5 01:21:45 10° NNW 01:27:34 60° NE 01:31:05 18° SE
Meteor 2-13 Rocket 4.4 01:27:04 10° NNW 01:33:05 64° W 01:34:11 55° SW
Cosmos 2227 Rocket 2.1 01:33:34 60° S 01:34:37 81° ESE 01:40:20 10° NNE
Cosmos 1538 Rocket 3.8 01:30:23 10° NNW 01:35:32 71° WSW 01:35:51 68° SW
MOZ.5/SAFIR/RUBIN 5/SL-8 4.2 01:36:59 47° W 01:36:59 47° W 01:41:09 10° NNW
Cosmos 1025 Rocket 4.3 01:33:24 10° NNW 01:36:08 29° WNW 01:36:08 29° WNW
Resurs 1-4 Rocket 2.0 01:33:13 10° NNE 01:38:32 79° WNW 01:39:24 62° SW
Cosmos 1674 3.3 01:36:57 10° NNW 01:39:47 49° NNW 01:39:47 49° NNW
Cosmos 1733 3.5 01:42:54 60° E 01:42:54 60° E 01:46:34 10° NNE
NOSS 0 Rocket 4.4 01:38:55 10° NW 01:44:40 40° WSW 01:44:40 40° WSW
ATLAS 3B R/B 4.5 01:41:31 10° WNW 01:46:39 23° NNW 01:51:52 10° NNE
Cosmos 2279 Rocket 3.9 01:44:46 45° S 01:46:52 85° E 01:53:06 10° N
Cosmos 1461 4.2 01:47:03 30° SE 01:47:31 31° ESE 01:51:28 10° NE
COBE Rocket 3.9 01:47:33 43° SE 01:49:01 71° ENE 01:53:39 10° N
USA 215 3.3 01:42:36 10° NE 01:49:08 70° SE 01:51:29 42° SSW
Cosmos 2026 Rocket 4.1 01:43:51 10° NNW 01:49:46 56° W 01:51:08 47° SW
Lacrosse 4 Rocket 4.1 01:50:01 10° NW 01:51:11 11° NW 01:52:19 10° NNW
Cosmos 1634 Rocket 4.2 01:50:27 44° SW 01:52:05 56° WNW 01:58:13 10° N
Cosmos 2219 Rocket 4.2 01:51:17 10° WNW 01:52:54 14° WNW 01:52:54 14° WNW
SL-24 R/B 4.4 01:53:41 45° SSE 01:55:09 79° E 02:00:08 10° N
Cosmos 2082 3.8 01:53:29 44° S 01:55:12 68° ESE 02:00:47 10° NNE
Cosmos 2344 4.4 01:46:29 10° NW 01:56:16 71° WSW 02:09:56 10° SSE
SL-4 R/B 2.4 01:58:02 21° NW 02:00:05 49° NNE 02:03:23 10° E
Meteor 1-24 Rocket 3.5 02:00:41 10° N 02:06:13 87° E 02:08:55 30° S
SL-16 R/B 2.2 02:01:27 10° NNW 02:07:12 86° ENE 02:12:33 12° SSE
CBERS-1 3.9 02:02:13 10° NNE 02:07:23 86° ESE 02:09:09 42° S
Meteor 2-5 Rocket 3.6 02:04:19 10° NNW 02:09:55 67° W 02:11:59 38° SSW
Cosmos 1898 Rocket 3.8 02:11:41 32° S 02:13:57 60° ESE 02:19:06 10° NNE
ARIANE 5 R/B 3.3 02:09:46 10° NNE 02:14:50 48° E 02:18:02 21° SSE
SL-16 R/B 3.1 02:13:42 34° WSW 02:15:00 37° W 02:20:47 10° NNW
NPP 4.1 02:11:32 10° N 02:16:39 46° WNW 02:18:22 35° WSW
CZ-2D R/B 2.9 02:12:34 10° N 02:17:38 39° WNW 02:19:24 31° WSW
IDEFIX/ARIANE 42P 3.9 02:12:55 10° NNE 02:17:38 34° E 02:21:55 12° SSE
Cosmos 1680 Rocket 3.4 02:13:37 10° NNW 02:18:53 87° WSW 02:22:58 17° SSE
NOSS 3-1 (C) 3.7 02:17:24 31° S 02:19:50 54° ESE 02:25:50 10° NE
USA 267 3.6 02:14:40 10° ESE 02:21:08 66° NNE 02:27:36 10° NW
Cosmos 1544 Rocket 4.1 02:20:01 27° SSE 02:22:16 56° E 02:26:40 10° NNE
AQUA 4.4 02:18:40 10° N 02:23:10 43° WNW 02:24:27 35° WSW
Cosmos 990 Rocket 4.0 02:23:20 34° SSW 02:25:37 82° ESE 02:30:50 10° NNE
Cosmos 1607 3.9 02:19:26 10° NW 02:25:54 76° WSW 02:32:20 10° SSE
ADEOS II 2.0 02:20:47 10° N 02:26:03 75° WNW 02:28:23 34° SSW
Cosmos 1766 4.1 02:26:32 32° W 02:26:45 33° WNW 02:30:17 10° N
Cosmos 2263 Rocket 3.6 02:23:53 13° SSE 02:28:07 31° ESE 02:32:59 10° NE
Meteor 1-22 Rocket 4.1 02:27:12 36° SW 02:29:17 62° WNW 02:34:33 10° N
Cosmos 2297 Rocket 3.2 02:27:24 25° W 02:29:48 35° NW 02:34:59 10° NNE
IRS-1D 3.7 02:24:54 10° N 02:29:51 59° WNW 02:31:54 34° SW
Cosmos 2219 4.4 02:27:45 22° W 02:30:12 31° NW 02:35:09 10° N
Okean 1-7 Rocket 3.5 02:28:22 10° N 02:32:47 78° W 02:35:04 28° S
IRS-1C 4.1 02:30:17 10° NNE 02:35:40 86° WNW 02:38:42 27° SSW
TIMED 4.5 02:32:58 10° NNW 02:37:18 61° WSW 02:39:36 26° S
Meteor 1-28 Rocket 3.1 02:36:22 26° SSE 02:38:23 87° WSW 02:42:12 10° NNW
Cosmos 1626 2.7 02:35:21 10° NNW 02:38:48 36° W 02:38:56 36° W
Cosmos 2266 Rocket 4.0 02:33:26 10° NNW 02:39:47 73° W 02:45:02 15° S
Cosmos 1655 Rocket 4.1 02:34:30 10° NNW 02:40:36 55° W 02:44:28 23° SSW
Cosmos 2237 Rocket 3.6 02:38:11 10° WNW 02:41:37 19° W 02:41:37 19° W
CZ-4B R/B 4.1 02:38:39 10° N 02:43:03 37° WNW 02:44:50 27° WSW
Cosmos 1470 2.7 02:41:43 36° SSW 02:43:12 71° W 02:47:11 10° N
SL-08 R/B 3.4 02:43:56 17° S 02:47:41 66° WSW 02:52:38 10° NNW
USA 229 DEB 3.7 02:48:34 23° SSW 02:52:55 80° SE 02:59:47 10° NE
USA 229 3.7 02:48:40 23° SSW 02:53:00 79° SE 02:59:51 10° NE
Cosmos 2098 Rocket 3.8 02:50:04 10° NNW 02:54:46 53° W 02:59:34 15° SSW
NOSS 3 (A) 4.2 02:55:49 46° SSW 02:56:29 81° ESE 02:59:20 10° NE
Cosmos 158 Rocket 4.5 02:51:36 10° NW 02:56:38 42° WSW 03:00:32 16° SSW
ERBS 2.9 03:00:46 10° WNW 03:03:44 31° SW 03:06:40 10° SSE
NOSS 2-3 (C) 3.9 03:01:08 21° SSW 03:03:54 61° ESE 03:08:43 10° NE
NOSS 3-1 (A) 3.5 03:00:07 19° SSW 03:04:05 68° ESE 03:10:19 10° NE
SJ 16-02 2.6 03:02:10 20° W 03:04:07 27° WNW 03:07:55 10° N
Meteor 2-14 Rocket 4.4 02:58:32 10° N 03:04:38 90° W 03:10:42 10° S
CSL-04 DEB 4.2 03:05:18 10° SSE 03:09:13 88° WSW 03:13:10 10° NNW
Cosmos 1455 Rocket 4.1 03:11:32 20° WSW 03:13:39 30° WNW 03:17:35 10° NNW
MSX 4.0 03:08:01 10° NNE 03:13:48 74° ESE 03:19:33 10° S
Cosmos 1809 Rocket 4.5 03:07:49 10° NNW 03:13:51 63° W 03:19:52 10° S
Cosmos 1943 3.5 03:08:21 10° NNW 03:13:58 70° ENE 03:19:34 10° SSE
Cosmos 1626 Rocket 3.5 03:10:50 10° NNW 03:15:06 60° W 03:19:20 10° S
Cosmos 1758 4.0 03:13:24 21° SW 03:15:34 37° WNW 03:19:21 10° N
Resurs 1-4 Rocket 4.2 03:15:17 10° NNW 03:17:28 13° NW 03:19:39 10° W
Spot 4 Rocket 4.1 03:13:14 10° N 03:18:23 67° WNW 03:23:00 13° SSW
Meteor 1-21 Rocket 4.1 03:13:22 10° NNW 03:18:56 76° W 03:24:25 10° S
Cosmos 2227 Rocket 3.9 03:15:24 10° W 03:19:23 20° NW 03:23:29 10° N
SeaSat 1 2.8 03:17:38 10° NNE 03:22:34 66° ESE 03:27:28 10° SSW
Landsat 5 3.2 03:20:05 10° SSE 03:23:57 82° WSW 03:27:59 10° NNW
CZ-2C R/B 2.7 03:22:37 10° N 03:26:31 72° WNW 03:30:09 11° SSW
Cosmos 1461 4.0 03:23:26 15° WSW 03:26:34 35° NW 03:30:47 10° NNE
CZ-2D R/B 3.9 03:24:12 10° N 03:28:04 43° WNW 03:31:10 14° SW
Cosmos 2227 4.3 03:24:45 13° SSW 03:30:01 77° WNW 03:35:49 10° NNE
FALCON 9 DEB 3.0 03:27:20 10° WNW 03:30:50 73° SW 03:34:15 10° SE
ATLAS CENTAUR R/B 3.4 03:28:33 10° SSE 03:31:52 23° ESE 03:35:03 10° ENE
USA 215 4.0 03:25:46 10° NE 03:31:59 47° NNW 03:38:10 10° W
Cosmos 1340 Rocket 4.1 03:29:56 15° WSW 03:32:15 24° WNW 03:35:33 10° NNW
ATLAS 3B CENTAUR R/B 4.1 03:27:05 13° WSW 03:32:49 20° SSW 03:37:13 10° SSE
Cosmos 1758 Rocket 3.7 03:28:45 10° N 03:33:05 79° E 03:37:24 10° SSE
ERS-2 2.0 03:31:37 10° S 03:35:14 66° WSW 03:38:53 10° NNW
Cosmos 2228 3.7 03:32:10 10° S 03:36:25 58° E 03:40:44 10° NNE
Cosmos 724 4.4 03:30:52 10° NW 03:36:48 63° WSW 03:42:49 10° SSE
Cosmos 1953 2.9 03:35:03 12° SW 03:38:29 40° WNW 03:42:20 10° N
SL-4 R/B 2.4 03:36:30 10° WNW 03:39:30 29° SW 03:42:29 10° SSE
Cosmos 1726 3.1 03:38:38 13° SW 03:41:27 30° WNW 03:44:45 10° NNW
Cosmos 1908 3.2 03:39:40 10° SSW 03:43:35 77° W 03:47:31 10° N
Meteor 1-16 Rocket 4.2 03:39:23 10° SSW 03:44:42 68° WNW 03:50:12 10° N
Cosmos 2285 Rocket 4.1 03:40:11 10° SSW 03:46:29 86° ESE 03:52:50 10° NNE
H-2A R/B 2.5 03:45:49 10° SSW 03:49:40 38° W 03:53:32 10° NNW
SL-16 R/B 3.8 03:47:36 10° WNW 03:50:28 14° W 03:53:19 10° SW
Cosmos 2150 Rocket 4.0 03:46:11 10° SSW 03:51:20 85° WNW 03:56:35 10° NNE
ARIANE 5 R/B 3.8 03:49:27 10° N 03:53:38 25° WNW 03:57:48 10° WSW
Cosmos 1825 Rocket 3.5 03:51:19 10° NNW 03:55:40 76° W 03:59:58 10° S
IDEFIX/ARIANE 42P 3.4 03:52:34 10° N 03:57:11 33° WNW 04:01:48 10° SW
CZ-4C R/B 4.0 03:56:30 10° SSW 03:59:07 23° W 04:01:49 10° NW
Cosmos 1328 3.9 03:56:09 10° NNW 04:00:03 56° W 04:03:58 10° S
ADEOS 4.1 03:55:12 10° NNE 04:00:25 64° ESE 04:05:35 10° S
Cosmos 1953 Rocket 3.7 03:57:13 10° N 04:01:45 84° E 04:06:13 10° S
CZ-4B R/B 1.4 03:58:46 10° SSE 04:02:05 86° ENE 04:05:20 10° NNW
NOSS 2-3 (E) 4.3 03:58:20 10° WSW 04:02:29 44° NW 04:07:23 10° NNE
USA 267 3.6 03:58:12 10° SSE 04:04:20 42° SW 04:10:30 10° WNW
ADEOS II 4.1 04:02:57 10° NNW 04:04:50 12° NW 04:06:43 10° WNW
